EW3043 Weather Reports


Display with metric or nautical units.
time (UTC)temp
F
wind
direction
speed
MPH
gust
MPH
rain 1hr
in
rain 24hr
in
rain mn
in
humidity
%
barometer
mb
20260903213134 73 168 1.0 5.0 0.00 0.00 0.00 21 1020.8
20260903212650 72 179 1.0 6.0 0.00 0.00 0.00 21 1020.7
20260903211646 73 247 2.0 4.0 0.00 0.00 0.00 22 1020.8
20260903211143 74 30 1.0 5.0 0.00 0.00 0.00 21 1020.8
20260903210640 74 247 1.0 5.0 0.00 0.00 0.00 20 1020.8
20260903210138 74 243 1.0 3.0 0.00 0.00 0.00 21 1020.8
20260903205638 74 283 1.0 7.0 0.00 0.00 0.00 20 1020.8
20260903205137 74 205 1.0 7.0 0.00 0.00 0.00 21 1020.8
20260903204635 74 244 1.0 6.0 0.00 0.00 0.00 21 1020.8
20260903204132 73 136 2.0 6.0 0.00 0.00 0.00 22 1020.8
20260903203630 73 285 1.0 5.0 0.00 0.00 0.00 20 1020.8
20260903203208 73 243 1.0 7.0 0.00 0.00 0.00 21 1020.7
20260903202705 73 253 1.0 7.0 0.00 0.00 0.00 21 1020.7
20260903202203 73 283 1.0 3.0 0.00 0.00 0.00 22 1020.8
20260903201640 73 238 0.0 4.0 0.00 0.00 0.00 23 1020.8
20260903201138 73 283 1.0 4.0 0.00 0.00 0.00 21 1020.8
20260903200635 73 193 1.0 4.0 0.00 0.00 0.00 22 1020.9
20260903200137 72 266 1.0 5.0 0.00 0.00 0.00 23 1020.9
20260903195636 72 283 1.0 5.0 0.00 0.00 0.00 24 1020.9
20260903195134 73 263 1.0 3.0 0.00 0.00 0.00 22 1021.0
20260903194633 73 252 1.0 3.0 0.00 0.00 0.00 22 1021.0
20260903194152 73 171 1.0 4.0 0.00 0.00 0.00 22 1021.0
20260903193629 72 259 1.0 6.0 0.00 0.00 0.00 23 1021.0
20260903193147 72 214 2.0 6.0 0.00 0.00 0.00 22 1021.0
20260903192645 72 302 2.0 4.0 0.00 0.00 0.00 22 1021.1
20260903192143 72 240 1.0 5.0 0.00 0.00 0.00 22 1021.2
20260903191641 71 245 1.0 5.0 0.00 0.00 0.00 22 1021.2
20260903191140 72 296 1.0 4.0 0.00 0.00 0.00 21 1021.2
20260903190658 72 94 1.0 5.0 0.00 0.00 0.00 21 1021.4
20260903190134 72 234 1.0 5.0 0.00 0.00 0.00 21 1021.4
20260903185633 72 296 1.0 2.0 0.00 0.00 0.00 21 1021.4
20260903185131 73 326 1.0 3.0 0.00 0.00 0.00 21 1021.5
20260903184628 72 174 1.0 3.0 0.00 0.00 0.00 21 1021.5
20260903184131 72 265 1.0 3.0 0.00 0.00 0.00 21 1021.5
20260903183646 72 271 1.0 4.0 0.00 0.00 0.00 20 1021.5
20260903183144 72 200 1.0 4.0 0.00 0.00 0.00 21 1021.6
20260903182641 72 262 1.0 3.0 0.00 0.00 0.00 20 1021.6
20260903182159 72 228 1.0 3.0 0.00 0.00 0.00 20 1021.6
20260903181636 73 183 1.0 3.0 0.00 0.00 0.00 20 1021.6
20260903181134 73 63 1.0 2.0 0.00 0.00 0.00 21 1021.6
20260903180632 73 267 0.0 2.0 0.00 0.00 0.00 21 1021.6
20260903180130 72 307 1.0 4.0 0.00 0.00 0.00 21 1021.5
20260903175628 72 74 1.0 4.0 0.00 0.00 0.00 22 1021.6
20260903175146 71 288 1.0 4.0 0.00 0.00 0.00 22 1021.6
20260903174644 71 254 1.0 4.0 0.00 0.00 0.00 21 1021.4
20260903174204 71 29 1.0 4.0 0.00 0.00 0.00 21 1021.4
20260903173640 71 20 0.0 4.0 0.00 0.00 0.00 22 1021.5
20260903173138 70 131 1.0 4.0 0.00 0.00 0.00 22 1021.5
20260903172636 70 288 1.0 3.0 0.00 0.00 0.00 22 1021.4
20260903172134 70 255 1.0 3.0 0.00 0.00 0.00 22 1021.4
20260903171636 70 303 1.0 3.0 0.00 0.00 0.00 21 1021.3
20260903171133 70 176 1.0 9.0 0.00 0.00 0.00 23 1021.3
20260903170631 70 236 1.0 9.0 0.00 0.00 0.00 22 1021.2
20260903170210 69 233 0.0 6.0 0.00 0.00 0.00 22 1021.2
20260903165708 69 247 1.0 6.0 0.00 0.00 0.00 23 1021.2
20260903165205 68 278 1.0 3.0 0.00 0.00 0.00 24 1021.1
20260903164640 68 217 0.0 4.0 0.00 0.00 0.00 23 1021.1
20260903164155 68 274 1.0 4.0 0.00 0.00 0.00 23 1021.0
20260903163632 68 299 1.0 3.0 0.00 0.00 0.00 23 1021.1
20260903163130 67 219 1.0 4.0 0.00 0.00 0.00 24 1021.1
20260903162708 67 269 1.0 4.0 0.00 0.00 0.00 23 1021.0
20260903162144 67 259 1.0 3.0 0.00 0.00 0.00 23 1021.2
20260903161642 67 153 1.0 3.0 0.00 0.00 0.00 23 1021.1
20260903161139 66 241 0.0 3.0 0.00 0.00 0.00 24 1021.1
20260903160657 66 229 0.0 2.0 0.00 0.00 0.00 23 1021.1
20260903160154 66 285 0.0 2.0 0.00 0.00 0.00 23 1021.1
20260903155630 65 291 0.0 3.0 0.00 0.00 0.00 24 1021.1
20260903155148 65 155 1.0 3.0 0.00 0.00 0.00 24 1021.2
20260903154646 64 48 1.0 2.0 0.00 0.00 0.00 24 1021.1
20260903154204 64 297 0.0 2.0 0.00 0.00 0.00 24 1021.1
20260903153640 64 276 1.0 2.0 0.00 0.00 0.00 24 1021.1
20260903153139 63 169 0.0 1.0 0.00 0.00 0.00 24 1021.1
20260903152636 63 338 0.0 2.0 0.00 0.00 0.00 24 1021.0
20260903152135 62 274 0.0 2.0 0.00 0.00 0.00 24 1021.0
20260903151637 62 12 0.0 2.0 0.00 0.00 0.00 25 1021.0
20260903151155 61 237 1.0 2.0 0.00 0.00 0.00 26 1021.0
20260903150632 61 295 0.0 2.0 0.00 0.00 0.00 25 1021.0
20260903150210 60 278 1.0 1.0 0.00 0.00 0.00 25 1021.0
20260903145648 59 121 0.0 1.0 0.00 0.00 0.00 25 1021.0
20260903145147 58 42 0.0 1.0 0.00 0.00 0.00 25 1020.9
20260903144704 58 60 0.0 1.0 0.00 0.00 0.00 24 1020.9
20260903144141 57 357 0.0 1.0 0.00 0.00 0.00 25 1020.8
20260903143639 57 45 0.0 1.0 0.00 0.00 0.00 25 1020.7
20260903143137 56 11 0.0 1.0 0.00 0.00 0.00 25 1020.7
20260903142632 55 250 0.0 1.0 0.00 0.00 0.00 25 1020.6
20260903142130 54 252 0.0 1.0 0.00 0.00 0.00 24 1020.6
20260903141648 54 250 0.0 1.0 0.00 0.00 0.00 24 1020.6
20260903141206 54 158 0.0 1.0 0.00 0.00 0.00 22 1020.5
20260903140643 53 243 0.0 1.0 0.00 0.00 0.00 22 1020.5
20260903140141 53 250 0.0 1.0 0.00 0.00 0.00 21 1020.5
20260903135640 53 250 0.0 1.0 0.00 0.00 0.00 20 1020.4
20260903135157 52 250 0.0 1.0 0.00 0.00 0.00 19 1020.4
20260903134634 52 250 0.0 1.0 0.00 0.00 0.00 19 1020.3
20260903134133 52 250 0.0 1.0 0.00 0.00 0.00 18 1020.3
20260903133635 52 250 0.0 1.0 0.00 0.00 0.00 18 1020.3
20260903133153 52 250 0.0 1.0 0.00 0.00 0.00 17 1020.4
20260903132650 52 249 0.0 1.0 0.00 0.00 0.00 16 1020.4
20260903132148 52 250 0.0 1.0 0.00 0.00 0.00 16 1020.3
20260903131646 52 248 0.0 1.0 0.00 0.00 0.00 16 1020.3
20260903131143 52 256 0.0 1.0 0.00 0.00 0.00 16 1020.3
20260903130640 52 256 0.0 1.0 0.00 0.00 0.00 15 1020.2
20260903130138 52 256 0.0 1.0 0.00 0.00 0.00 15 1020.2
20260903125635 52 245 0.0 1.0 0.00 0.00 0.00 16 1020.3
20260903125133 52 252 0.0 1.0 0.00 0.00 0.00 16 1020.3
20260903124631 52 251 0.0 1.0 0.00 0.00 0.00 16 1020.3
20260903124149 52 248 0.0 1.0 0.00 0.00 0.00 16 1020.3
20260903123647 52 245 0.0 1.0 0.00 0.00 0.00 15 1020.3
20260903123145 52 245 0.0 1.0 0.00 0.00 0.00 15 1020.4
20260903122642 52 246 0.0 1.0 0.00 0.00 0.00 15 1020.3
20260903122141 51 246 0.0 1.0 0.00 0.00 0.00 15 1020.3
20260903121642 51 248 0.0 1.0 0.00 0.00 0.00 16 1020.2
20260903121140 51 248 0.0 1.0 0.00 0.00 0.00 15 1020.3
20260903120638 51 239 0.0 1.0 0.00 0.00 0.00 15 1020.2
20260903120136 51 223 0.0 1.0 0.00 0.00 0.00 15 1020.2
20260903115634 51 239 0.0 1.0 0.00 0.00 0.00 15 1020.2
20260903115132 51 141 0.0 1.0 0.00 0.00 0.00 15 1020.1
20260903114708 51 238 0.0 1.0 0.00 0.00 0.00 15 1020.2
20260903114144 51 236 0.0 1.0 0.00 0.00 0.00 15 1020.3
20260903113642 51 240 0.0 1.0 0.00 0.00 0.00 17 1020.4
20260903113140 51 226 0.0 1.0 0.00 0.00 0.00 15 1020.3
20260903112638 51 150 0.0 1.0 0.00 0.00 0.00 15 1020.3
20260903112136 51 127 0.0 1.0 0.00 0.00 0.00 15 1020.4
20260903111634 51 250 0.0 1.0 0.00 0.00 0.00 15 1020.3
20260903111132 51 250 0.0 1.0 0.00 0.00 0.00 15 1020.4
20260903110710 51 261 0.0 1.0 0.00 0.00 0.00 16 1020.4
20260903110147 51 242 0.0 1.0 0.00 0.00 0.00 16 1020.4
20260903105645 51 251 0.0 1.0 0.00 0.00 0.00 15 1020.4
20260903105148 52 205 0.0 1.0 0.00 0.00 0.00 16 1020.5
20260903104706 51 214 0.0 1.0 0.00 0.00 0.00 16 1020.5
20260903104141 52 250 0.0 0.0 0.00 0.00 0.00 16 1020.5
20260903103639 52 262 0.0 1.0 0.00 0.00 0.00 16 1020.6
20260903103137 52 262 0.0 1.0 0.00 0.00 0.00 16 1020.6
20260903102635 51 256 0.0 1.0 0.00 0.00 0.00 16 1020.6
20260903102134 51 246 0.0 1.0 0.00 0.00 0.00 17 1020.6
20260903101632 51 257 0.0 1.0 0.00 0.00 0.00 17 1020.7
20260903101210 51 6 0.0 1.0 0.00 0.00 0.00 17 1020.7
20260903100647 51 238 0.0 1.0 0.00 0.00 0.00 17 1020.7
20260903100144 51 243 0.0 1.0 0.00 0.00 0.00 17 1020.7
20260903095642 51 236 0.0 1.0 0.00 0.00 0.00 17 1020.7
20260903095200 51 75 0.0 1.0 0.00 0.00 0.00 16 1020.7
20260903094638 51 73 0.0 1.0 0.00 0.00 0.00 16 1020.7
20260903094136 51 255 0.0 1.0 0.00 0.00 0.00 16 1020.7
20260903093634 51 253 0.0 1.0 0.00 0.00 0.00 16 1020.8
20260903093151 51 264 0.0 1.0 0.00 0.00 0.00 16 1020.8
20260903092648 52 67 0.0 1.0 0.00 0.00 0.00 16 1020.9
20260903092146 52 67 0.0 1.0 0.00 0.00 0.00 15 1021.0
20260903091703 53 68 0.0 1.0 0.00 0.00 0.00 14 1021.0
20260903091144 53 68 0.0 1.0 0.00 0.00 0.00 14 1021.0
20260903090640 54 289 0.0 1.0 0.00 0.00 0.00 14 1021.1
20260903090133 55 283 0.0 3.0 0.00 0.00 0.00 13 1021.1
20260903085652 55 277 0.0 3.0 0.00 0.00 0.00 12 1021.2
20260903085143 55 252 1.0 3.0 0.00 0.00 0.00 13 1021.2
20260903084643 55 254 1.0 6.0 0.00 0.00 0.00 13 1021.3
20260903084136 55 252 1.0 6.0 0.00 0.00 0.00 13 1021.3
20260903083635 55 251 1.0 3.0 0.00 0.00 0.00 13 1021.3
20260903083155 55 255 1.0 3.0 0.00 0.00 0.00 13 1021.2
20260903082641 55 264 1.0 2.0 0.00 0.00 0.00 13 1021.3
20260903082139 55 246 1.0 3.0 0.00 0.00 0.00 14 1021.4
20260903081651 54 269 0.0 3.0 0.00 0.00 0.00 14 1021.4
20260903081150 54 176 0.0 2.0 0.00 0.00 0.00 14 1021.4
20260903080637 54 283 0.0 3.0 0.00 0.00 0.00 14 1021.5
20260903080136 54 268 1.0 3.0 0.00 0.00 0.00 15 1021.5
20260903075634 53 255 1.0 2.0 0.00 0.00 0.00 17 1021.5
20260903075152 53 255 0.0 2.0 0.00 0.00 0.00 17 1021.5
20260903074710 52 246 0.0 1.0 0.00 0.00 0.00 19 1021.5
20260903074145 51 247 0.0 1.0 0.00 0.00 0.00 19 1021.5
20260903073643 50 257 0.0 1.0 0.00 0.00 0.00 23 1021.5
20260903073142 51 257 0.0 1.0 0.00 0.00 0.00 25 1021.6
20260903072700 51 250 0.0 1.0 0.00 0.00 0.00 27 1021.6
20260903072137 51 250 0.0 1.0 0.00 0.00 0.00 28 1021.6
20260903071635 51 250 0.0 1.0 0.00 0.00 0.00 28 1021.7
20260903071153 51 248 0.0 1.0 0.00 0.00 0.00 28 1021.7
20260903070651 51 255 0.0 1.0 0.00 0.00 0.00 28 1021.7
20260903070149 51 258 0.0 1.0 0.00 0.00 0.00 29 1021.7
20260903065646 50 259 0.0 1.0 0.00 0.00 0.00 30 1021.7
20260903065144 50 259 0.0 1.0 0.00 0.00 0.00 31 1021.8
20260903064640 50 259 0.0 1.0 0.00 0.00 0.00 31 1021.8
20260903064139 50 259 0.0 1.0 0.00 0.00 0.00 32 1021.8
20260903063657 49 259 0.0 1.0 0.00 0.00 0.00 33 1021.8
20260903063133 49 259 0.0 1.0 0.00 0.00 0.00 33 1021.9
20260903062651 48 259 0.0 1.0 0.00 0.00 0.00 36 1021.9
20260903062148 48 259 0.0 0.0 0.00 0.00 0.00 38 1021.9
20260903061706 48 259 0.0 0.0 0.00 0.00 0.00 39 1021.9
20260903061142 48 259 0.0 0.0 0.00 0.00 0.00 39 1022.0
20260903060640 48 259 0.0 0.0 0.00 0.00 0.00 40 1022.0
20260903060138 48 259 0.0 0.0 0.00 0.00 0.00 41 1022.0
20260903055642 48 259 0.0 0.0 0.00 0.00 0.00 40 1022.1
20260903055139 49 259 0.0 0.0 0.00 0.00 0.00 41 1022.0
20260903054655 49 259 0.0 0.0 0.00 0.00 0.00 40 1022.1
20260903054213 49 259 0.0 0.0 0.00 0.00 0.00 40 1022.2
20260903053650 50 259 0.0 0.0 0.00 0.00 0.00 38 1022.2
20260903053149 50 260 0.0 1.0 0.00 0.00 0.00 38 1022.2
20260903052707 50 261 0.0 1.0 0.00 0.00 0.00 35 1022.1
20260903052146 50 260 0.0 0.0 0.00 0.00 0.00 32 1022.1
20260903051645 50 260 0.0 0.0 0.00 0.00 0.00 31 1022.1
20260903051134 50 260 0.0 0.0 0.00 0.00 0.00 31 1022.2
20260903050639 50 262 0.0 1.0 0.00 0.00 0.00 30 1022.1
20260903050137 50 262 0.0 1.0 0.00 0.00 0.00 29 1022.1
20260903045647 50 243 0.0 0.0 0.00 0.00 0.00 29 1022.1
20260903045146 50 243 0.0 1.0 0.00 0.00 0.00 31 1022.1
20260903044646 51 243 0.0 1.0 0.00 0.00 0.00 33 1022.1
20260903044152 51 243 0.0 1.0 0.00 0.00 0.00 33 1022.1
20260903043651 50 227 0.0 0.0 0.00 0.00 0.00 36 1022.1
20260903043149 50 227 0.0 0.0 0.00 0.00 0.00 41 1022.1
20260903042648 50 227 0.0 0.0 0.00 0.00 0.00 41 1022.1
20260903042141 50 227 0.0 1.0 0.00 0.00 0.00 42 1022.1
20260903041639 50 229 0.0 1.0 0.00 0.00 0.00 41 1022.0
20260903041138 50 229 0.0 1.0 0.00 0.00 0.00 43 1022.0
20260903040657 50 229 0.0 0.0 0.00 0.00 0.00 44 1021.9
20260903040134 51 229 0.0 0.0 0.00 0.00 0.00 45 1021.9
20260903035654 51 229 0.0 1.0 0.00 0.00 0.00 44 1021.9
20260903035151 51 229 0.0 1.0 0.00 0.00 0.00 43 1021.9
20260903034649 51 229 0.0 1.0 0.00 0.00 0.00 42 1021.9
20260903034148 51 221 0.0 1.0 0.00 0.00 0.00 42 1021.8
20260903033646 51 143 0.0 0.0 0.00 0.00 0.00 44 1021.7
20260903033154 51 143 0.0 0.0 0.00 0.00 0.00 45 1021.7
20260903032655 51 142 0.0 0.0 0.00 0.00 0.00 45 1021.6
20260903032152 52 354 0.0 1.0 0.00 0.00 0.00 46 1021.6
20260903031710 52 354 0.0 2.0 0.00 0.00 0.00 46 1021.6
20260903031150 52 1 0.0 2.0 0.00 0.00 0.00 47 1021.4
20260903030716 52 113 0.0 0.0 0.00 0.00 0.00 46 1021.5
20260903030141 53 113 0.0 0.0 0.00 0.00 0.00 44 1021.5
20260903025650 54 113 0.0 1.0 0.00 0.00 0.00 43 1021.5
20260903025146 55 190 0.0 1.0 0.00 0.00 0.00 37 1021.6
20260903024644 55 190 0.0 3.0 0.00 0.00 0.00 29 1021.6
20260903024143 55 191 0.0 3.0 0.00 0.00 0.00 30 1021.6
20260903023641 56 297 0.0 2.0 0.00 0.00 0.00 35 1021.6
20260903023200 56 250 0.0 3.0 0.00 0.00 0.00 35 1021.6
20260903022716 56 233 0.0 3.0 0.00 0.00 0.00 36 1021.6
20260903022143 56 237 0.0 2.0 0.00 0.00 0.00 41 1021.7
20260903021642 56 253 0.0 2.0 0.00 0.00 0.00 42 1021.8
20260903021141 56 148 0.0 1.0 0.00 0.00 0.00 43 1021.8
20260903020700 57 233 0.0 1.0 0.00 0.00 0.00 43 1021.9
20260903020158 57 256 0.0 1.0 0.00 0.00 0.00 43 1022.0
20260903015715 57 261 0.0 3.0 0.00 0.00 0.00 42 1022.1
20260903015150 58 297 1.0 3.0 0.00 0.00 0.00 42 1022.1
20260903014647 58 252 0.0 3.0 0.00 0.00 0.00 42 1022.1
20260903014146 59 260 1.0 3.0 0.00 0.00 0.00 41 1022.1
20260903013149 59 289 0.0 2.0 0.00 0.00 0.00 40 1022.3
20260903012707 60 301 0.0 2.0 0.00 0.00 0.00 39 1022.3
20260903012144 60 49 0.0 2.0 0.00 0.00 0.00 38 1022.3
20260903011641 61 258 1.0 2.0 0.00 0.00 0.00 37 1022.3
20260903011159 61 257 0.0 3.0 0.00 0.00 0.00 36 1022.3
20260903010635 61 224 0.0 3.0 0.00 0.00 0.00 35 1022.2
20260903010153 62 141 0.0 1.0 0.00 0.00 0.00 32 1022.3
20260903005653 62 137 0.0 2.0 0.00 0.00 0.00 31 1022.2
20260903005152 63 177 0.0 2.0 0.00 0.00 0.00 29 1022.1
20260903004649 63 252 1.0 2.0 0.00 0.00 0.00 29 1022.1
20260903004148 64 241 0.0 4.0 0.00 0.00 0.00 27 1022.1
20260903003646 64 262 1.0 4.0 0.00 0.00 0.00 25 1022.1
20260903003145 64 266 0.0 2.0 0.00 0.00 0.00 24 1022.1
20260903002643 64 236 0.0 2.0 0.00 0.00 0.00 24 1022.1
20260903002141 65 253 1.0 2.0 0.00 0.00 0.00 22 1022.1
20260903001638 65 101 1.0 5.0 0.00 0.00 0.00 23 1022.1
20260903001136 65 152 0.0 5.0 0.00 0.00 0.00 23 1022.1
20260903000655 65 332 1.0 4.0 0.00 0.00 0.00 23 1022.1
20260903000153 66 184 0.0 5.0 0.00 0.00 0.00 21 1022.3
20260902235654 66 238 1.0 5.0 0.00 0.00 0.00 21 1022.2
20260902235151 66 72 1.0 6.0 0.00 0.00 0.00 20 1022.3
20260902234650 66 226 2.0 6.0 0.00 0.00 0.00 19 1022.3
20260902234148 66 253 0.0 4.0 0.00 0.00 0.00 20 1022.3
20260902233647 67 247 1.0 5.0 0.00 0.00 0.00 20 1022.4
20260902233144 67 300 1.0 5.0 0.00 0.00 0.00 19 1022.4
20260902232641 67 249 1.0 5.0 0.00 0.00 0.00 19 1022.4
20260902232140 67 243 0.0 5.0 0.00 0.00 0.00 19 1022.4
20260902231639 67 252 1.0 7.0 0.00 0.00 0.00 19 1022.4
20260902231136 67 185 0.0 7.0 0.00 0.00 0.00 18 1022.6
20260902230654 68 229 1.0 4.0 0.00 0.00 0.00 18 1022.5
20260902230152 68 283 1.0 3.0 0.00 0.00 0.00 17 1022.8
20260902225650 68 46 1.0 4.0 0.00 0.00 0.00 17 1022.7
20260902225149 68 261 1.0 4.0 0.00 0.00 0.00 16 1022.8
20260902224647 68 298 1.0 5.0 0.00 0.00 0.00 16 1022.8
20260902224147 68 258 1.0 5.0 0.00 0.00 0.00 16 1022.8
20260902223644 69 246 1.0 4.0 0.00 0.00 0.00 17 1022.9
20260902223141 69 275 1.0 4.0 0.00 0.00 0.00 16 1023.0
20260902222640 69 345 1.0 4.0 0.00 0.00 0.00 17 1023.1
20260902222158 69 247 1.0 4.0 0.00 0.00 0.00 16 1023.1
20260902221655 69 276 1.0 5.0 0.00 0.00 0.00 17 1023.1
20260902221213 69 249 1.0 5.0 0.00 0.00 0.00 16 1023.2
20260902220650 69 214 1.0 9.0 0.00 0.00 0.00 16 1023.1
20260902220216 69 167 1.0 9.0 0.00 0.00 0.00 15 1023.2
20260902215655 69 205 1.0 4.0 0.00 0.00 0.00 15 1023.2
20260902215151 69 215 1.0 4.0 0.00 0.00 0.00 15 1023.4
20260902214650 70 265 2.0 4.0 0.00 0.00 0.00 14 1023.3
20260902214147 70 261 1.0 4.0 0.00 0.00 0.00 13 1023.5
20260902213645 70 346 1.0 4.0 0.00 0.00 0.00 13 1023.5